This is the latest recevied weather packets stored in our database for station/object F4IEI-10. If no packets are shown the sender has not sent any weather packets the latest 10 day(s).
| Time | Temp. | Humidity | Pressure | Rain* | Wind** | Luminosity | Snow |
|---|---|---|---|---|---|---|---|
| 1777614212 | 11.67° C | 60% | 1021.9 hPa | - | - | - | - |
| 1777613312 | 10.56° C | 65% | 1021.7 hPa | - | - | - | - |
| 1777612411 | 8.33° C | 62% | 1021.6 hPa | - | - | - | - |
| 1777611512 | 6.11° C | 79% | 1021.6 hPa | - | - | - | - |
| 1777610611 | 4.44° C | 85% | 1021.6 hPa | - | - | - | - |
| 1777609712 | 4.44° C | 77% | 1021.6 hPa | - | - | - | - |
| 1777608810 | 4.44° C | 79% | 1021.5 hPa | - | - | - | - |
| 1777607910 | 4.44° C | 72% | 1021.5 hPa | - | - | - | - |
| 1777607017 | 4.44° C | 65% | 1021.5 hPa | - | - | - | - |
| 1777606110 | 4.44° C | 62% | 1021.4 hPa | - | - | - | - |
| 1777605211 | 4.44° C | 74% | 1021.5 hPa | - | - | - | - |
| 1777604311 | 5° C | 73% | 1021.5 hPa | - | - | - | - |
| 1777603411 | 5° C | 72% | 1021.5 hPa | - | - | - | - |
| 1777602511 | 5° C | 56% | 1021.5 hPa | - | - | - | - |
| 1777601610 | 5.56° C | 63% | 1021.5 hPa | - | - | - | - |
| 1777600711 | 5.56° C | 51% | 1021.5 hPa | - | - | - | - |
| 1777599811 | 5.56° C | 53% | 1021.5 hPa | - | - | - | - |
| 1777598911 | 6.67° C | 60% | 1021.5 hPa | - | - | - | - |
| 1777598011 | 6.67° C | 52% | 1021.6 hPa | - | - | - | - |
| 1777597111 | 7.22° C | 51% | 1021.5 hPa | - | - | - | - |
| 1777596211 | 7.78° C | 63% | 1021.6 hPa | - | - | - | - |
| 1777595311 | 8.89° C | 51% | 1021.7 hPa | - | - | - | - |
| 1777594410 | 9.44° C | 48% | 1021.5 hPa | - | - | - | - |
| 1777593511 | 10° C | 48% | 1021.5 hPa | - | - | - | - |
| 1777592611 | 10° C | 48% | 1021.6 hPa | - | - | - | - |
* Rain since midnight (hover to see other rain measurements)
** Current wind speed in m/s (hover to see current wind gust speed)